Location: Peebles
(55.6412°N, 3.1714°W)
Time: 16:19:01
(UTC+01:00)

FLOCK 4S 26 - Visible Passes

Search period start: 03 July 2022 00:00
Search period end: 13 July 2022 00:00
Orbit: 503 x 515 km, 97.4° (Epoch: 02 July)

Date Brightness Start Highest point End Pass type
(mag) Time Alt. Az. Time Alt. Az. Time Alt. Az.
06 Jul ? 23:30:57 10° WSW 23:32:20 12° W 23:33:42 10° WNW visible
07 Jul ? 23:12:39 10° SW 23:15:07 17° W 23:17:35 10° NW visible
08 Jul ? 22:54:53 10° SSW 22:57:56 23° W 23:00:59 10° NW visible
12 Jul ? 23:21:54 10° WSW 23:23:52 14° W 23:25:53 10° NW visible
